Other Public Products
Issued by NWS Grand Forks, ND

Home | Current Version | Previous Version | Text Only | Print | Product List | Glossary Off
Versions: 1 2 3 4 5 6 7 8 9 10 11 12 13 14 15 16 17 18 19 20 21 22 23 24 25 26 27 28 29 30 31 32 33 34 35 36 37 38 39 40 41 42 43 44 45 46 47 48 49 50

000
FPUS83 KFGF 291431
OPUFGF
PRAIRIE TO PINES WEATHER ROUNDUP
NATIONAL WEATHER SERVICE EASTERN NORTH DAKOTA/GRAND FORKS ND
800 AM CST THU JAN 29 2015

 **SATELLITE DATA USED TO AUGMENT SKY COVER AT AUTOMATED STATIONS**
 *****  WEATHER ACROSS EASTERN NORTH DAKOTA  *****

CITY           SKY/WX    TMP DP  RH WIND       PRES   REMARKS
GRAND FORKS    LGT SNOW  14   7  73 N23       30.42R WCI  -5
GRAND FORKS AF CLOUDY    16   9  73 N18G24    30.40R WCI  -1
GRAND CITY NWS   N/A     12 N/A N/A N12         N/A  WCI  -2
BUXTON           N/A     16  11  78 NW20        N/A  WCI   0
DEVILS LAKE    CLOUDY    16  10  79 N20       30.40R WCI  -1
FARGO          CLOUDY    21  13  71 N22G29    30.37R WCI   5
WAHPETON ARPT  CLOUDY    23  14  68 N18G25    30.35R WCI   9
$$

 *****  WEATHER ACROSS CENTRAL AND WESTERN NORTH DAKOTA  *****

CITY           SKY/WX    TMP DP  RH WIND       PRES   REMARKS
JAMESTOWN      CLOUDY    21  17  84 NW24G31   30.37R WCI   4
BISMARCK       CLOUDY    27  20  75 NW21G28   30.42R WCI  13
MINOT          CLOUDY    20  15  81 NW18      30.43R WCI   5
MINOT AFB      CLOUDY    19  19  98 N17       30.43R WCI   4
GARRISON         N/A     26  20  77 N20       30.41R WCI  12
WILLISTON      MOCLDY    21  16  81 NW9       30.48R WCI  11
DICKINSON      CLOUDY    26  20  77 NW17      30.40R WCI  13
HETTINGER      CLOUDY    26  22  84 NW10      30.42R WCI  16
$$

 *****  OTHER OBSERVATIONS NORTHEAST NORTH DAKOTA  *****

CITY           SKY/WX    TMP DP  RH WIND       PRES   REMARKS
WALHALLA       FLURRIES  10   9  92 N22G30    30.45R WCI  -9
LANGDON        NOT AVBL
CAVALIER       CLOUDY    10   5  79 N20G28    30.45R WCI  -8
GRAFTON        NOT AVBL
CANDO          FLURRIES  16  10  79 N18       30.43R WCI  -1
FORT TOTTEN      N/A     17  14  88 N7        29.95S WCI   8
ROLLA          FLURRIES  10   9  92 MISG      30.42R
RUGBY          FLURRIES  14  10  85 N16       30.43R WCI  -2
 ***** THE ABOVE OBSERVATIONS ARE NON NWS ARE NOT QUALITY
        CONTROLLED AND MAY MIS-REPORT RAIN FOR SNOW...
$$

 *****  OTHER OBSERVATIONS SOUTHEAST NORTH DAKOTA *****

CITY           SKY/WX    TMP DP  RH WIND       PRES   REMARKS
COOPERSTOWN    NOT AVBL
VALLEY CITY    FLURRIES  23  23 100 N20G28    30.37R WCI   8
OAKES            N/A     27  25  93 NW18      30.36R WCI  13
GWINNER        CLOUDY    28  25  86 N18       30.37R WCI  16
SHEYENNE NWR     N/A     24  19  79 N15       29.95  WCI  11
BUFFALO        NOT AVBL
WYNDMERE         N/A     25  19  80 N18         N/A  WCI  11
 ***** THE ABOVE OBSERVATIONS ARE NON NWS ARE NOT QUALITY
       CONTROLLED AND MAY MIS-REPORT RAIN FOR SNOW...
$$

  *****  WEATHER ACROSS NORTHERN MINNESOTA  *****

CITY           SKY/WX    TMP DP  RH WIND       PRES   REMARKS
FLAG ISLAND    CLOUDY     3   0  85 NW24      30.28R FOG     WCI -20
WARROAD        MOCLDY     5   0  78 NW13G23   30.31R WCI -12
ROSEAU         CLOUDY     7   1  78 NW20      30.33R HAZE    WCI -13
HALLOCK        PTCLDY     7   1  78 N23G31    30.41R WCI -14
THF RVR FALLS  CLOUDY    10   7  85 NW22      30.33R WCI  -9
HALSTAD          N/A     17   9  70 N22         N/A  WCI  -1
FOSSTON        LGT SNOW  10   7  85 NW15G22   30.30R WCI  -6
BAUDETTE       CLOUDY     7   2  80 NW26G33   30.24R WCI -15
WASKISH        CLOUDY    12  10  92 NW15G21   30.22R WCI  -4
CROOKSTON      CLOUDY    10   7  85 N26G32    30.40R WCI -11
$$
  *****  WEATHER ACROSS CENTRAL AND WEST MINNESOTA  *****

CITY           SKY/WX    TMP DP  RH WIND       PRES   REMARKS
BEMIDJI        FLURRIES  15  12  89 NW18      30.21R WCI  -2
PARK RAPIDS    CLOUDY    18  14  84 NW16G25   30.19R WCI   3
WADENA         CLOUDY    18  16  93 NW18G26   30.23R WCI   2
DETROIT LAKES  LGT SNOW  18  14  86 N22G28    30.29R WCI   0
MOORHEAD       CLOUDY    19  18  93 N25G31    30.37R WCI   2
FERGUS FALLS   CLOUDY    18  12  79 N25G32    30.34R WCI  -1
ELBOW LAKE     CLOUDY    19  15  84 N21G30    30.29R WCI   2
MORRIS MN      CLOUDY    23  18  80 NW25G33   30.28R WCI   7
STAPLES        CLOUDY    19  16  86 NW15G26   30.20R WCI   5
WHEATON        CLOUDY    21  18  86 NW23G31   30.36R WCI   5
$$
  *****  WEATHER ELSEWHERE ACROSS MINNESOTA  *****

CITY           SKY/WX    TMP DP  RH WIND       PRES   REMARKS
DULUTH         MOCLDY    26  18  71 NW21G31   30.01R WCI  12
INTRNTL FALLS  FLURRIES  16  12  84 NW16      30.15R WCI   1
ELY            CLOUDY    19  18  93 NW10G18   30.02R WCI   8
CLOQUET        CLOUDY    27  19  74 NW17G24   30.05R WCI  14
BRAINERD       CLOUDY    24  19  81 NW17G26   30.15R WCI  11
HIBBING        CLOUDY    22  18  85 NW23G30   30.07R WCI   6
ALEXANDRIA     CLOUDY    21  16  81 NW16G28   30.22R WCI   7
SAINT CLOUD    CLOUDY    28  21  75 NW17G26   30.14R WCI  16
MINNEAPOLIS    CLOUDY    31  24  75 NW17G29   30.12R WCI  19
$$

  *****  WEATHER ACROSS SOUTH DAKOTA  *****

CITY           SKY/WX    TMP DP  RH WIND       PRES   REMARKS
SIOUX FALLS    CLOUDY    30  24  78 NW21G29   30.29R WCI  17
BROOKINGS      NOT AVBL
WATERTOWN      CLOUDY    27  22  81 N18G29    30.29R WCI  14
HURON          CLOUDY    32  26  78 N14       30.36R WCI  22
SISSETON         N/A     27  22  81 N24G31    30.31R WCI  12
ABERDEEN       CLOUDY    31  24  75 NW14      30.37R WCI  21
MITCHELL       CLOUDY    33  27  78 NW18      30.38R WCI  22
PIERRE         CLOUDY    35  26  69 N12       30.40R
MOBRIDGE       PTCLDY    29  20  69 NW22G30   30.38R WCI  15
RAPID CITY     CLEAR     22  19  89 W8        30.44R WCI  12
$$

  *****  SOME WEATHER IN NEARBY STATES *****

CITY           SKY/WX    TMP DP  RH WIND       PRES   REMARKS
GLASGOW MT     FOG       21  18  88 E6        30.44R VSB 1/4 WCI  13
GREAT FALLS MT CLEAR     30  23  75 S12       30.32F WCI  20
CHEYENNE WY    CLOUDY    31  21  66 NW7       30.43R WCI  24
SCOTTSBLUFF NE CLEAR     29  24  82 W9        30.46R WCI  20
OMAHA NE       CLOUDY    36  27  69 N22G29    30.27R
DES MOINES IA  DRIZZLE   35  30  82 N20G29    30.14R WCI  24
DAVENPORT IA   CLOUDY    33  27  78 NW21      29.95R WCI  21
CHICAGO IL     LGT SNOW  34  28  79 N18G26    29.80R WCI  23
EAU CLAIRE WI  CLOUDY    32  25  75 NW17G25   29.99R WCI  21
LA CROSSE WI   CLOUDY    34  29  82 NW14      29.98R WCI  25
$$

  *****  SOME NATIONAL WEATHER *****

CITY           SKY/WX    TMP DP  RH WIND       PRES   REMARKS
LA GUARDIA NY  PTSUNNY   24   3  40 NE5       30.33F WCI  18
RALEIGH NC     PTSUNNY   31  13  47 CALM      30.36R
ATLANTA GA     PTSUNNY   40  28  62 S6        30.31R
NEW ORLEANS LA MOSUNNY   55  52  89 S9        30.22S
OKLAHOMA CITY  PTCLDY    48  33  56 N17       30.30R
ALBUQUERQUE NM CLOUDY    48  28  46 E20       30.33R
SALT LAKE CITY PTCLDY    29  27  92 CALM      30.36S
LOS ANGELES CA CLOUDY    65  43  44 VRB6      30.02R
BOISE ID       PTCLDY    34  31  88 S5        30.42R
SEATTLE WA     MOCLDY    41  38  89 N5        30.36R
$$

*** WEATHER ACROSS MANITOBA...SASKATCHEWAN AND ONTARIO ***
                ***ONTARIO***

CITY           SKY/WX    TMP DP  RH WIND       PRES   REMARKS
GERALDTON      LGT SNOW   3  -2  78 N10G18    29.90R DRFTSNOWWCI -12
THUNDER BAY    CLOUDY    23  18  80 N14G30    29.94R WCI  11
SIOUX LOOKOUT  FLURRIES   5   1  85 N9G17     30.13R WCI  -9
TORONTO        CLOUDY    28  12  50 SE13G20   29.96F WCI  18
BIG TROUT LK   FLURRIES -15 -20  76 NW9       30.22R WCI -33
PICKLE LAKE    FLURRIES  -4  -9  77 N8        30.10R WCI -19
DRYDEN         FLURRIES   7   3  85 NW10G18   30.15R WCI  -8
KENORA         LGT SNOW   5   1  85 NW12G25   30.21R DRFTSNOWWCI -11
$$
                *** MANITOBA***

CITY           SKY/WX    TMP DP  RH WIND       PRES   REMARKS
BRANDON        FLURRIES  10   5  79 NW12      30.47R WCI  -4
DAUPHIN        PTCLDY    -2  -8  78 N8        30.54R WCI -17
ISLAND LAKE    CLEAR    -11 -17  77 NW9       30.36R WCI -29
PILOT MOUND      N/A      7   5  92 N12         N/A  WCI  -9
THE PAS        CLEAR    -15 -20  76 NW10      30.56R WCI -35
THOMPSON       CLEAR    -20 -27  69 W7        30.44R WCI -37
WINNIPEG       PTCLDY     3  -2  78 NW22G29   30.45R WCI -19
LYNN LAKE      CLEAR    -22 -27  76 W12G17    30.42F WCI -45
CHURCHILL      CLEAR    -24 -31  69 W12G17    30.26F WCI -47
GILLAM         CLEAR    -22 -27  76 W10       30.35R WCI -44
$$
                ***SASKATCHEWAN***

CITY           SKY/WX    TMP DP  RH WIND       PRES   REMARKS
ESTEVAN        FLURRIES  16  14  93 N12       30.46R WCI   3
KINDERSLEY     MOCLDY     9   5  85 E7        30.40F WCI  -3
LLOYDMINSTER   CLEAR      3   0  85 SE10      30.39F WCI -12
PRINCE ALBERT  FLURRIES  -2  -6  84 W3        30.54R
REGINA         FLURRIES  12   9  85 NE9       30.47S WCI   0


USA.gov is the U.S. government's official web portal to all federal, state and local government web resources and services.